Regional Weather Roundup
Issued by NWS Upton, NY

Current Version | Previous Version | Graphics & Text | Print | Product List | Glossary Off
Versions: 1 2 3 4 5 6 7 8 9 10 11 12 13 14 15 16 17 18 19 20 21 22 23 24 25 26 27 28 29 30 31 32 33 34 35 36 37 38 39 40 41 42 43 44 45 46 47 48

000
ASUS41 KOKX 021305
RWROKX

REGIONAL WEATHER ROUNDUP
NATIONAL WEATHER SERVICE NEW YORK NY
800 AM EST MON MAR 02 2015

NOTE: "FAIR" INDICATES FEW OR NO CLOUDS BELOW 12,000 FEET WITH NO
SIGNIFICANT WEATHER AND/OR OBSTRUCTIONS TO VISIBILITY.

NYZ071-072-176-178-NJZ106-104-021400-
NEW YORK CITY METRO AREA


CITY           SKY/WX    TMP DP  RH WIND       PRES   REMARKS
CENTRAL PARK   CLOUDY    33  25  72 VRB6      30.10R HAZE    WCI  28
LAGUARDIA APRT CLOUDY    32  27  81 NW16      30.08R WCI  21
KENNEDY INTL   CLOUDY    33  28  81 NW9       30.09R WCI  25
NEWARK/LIBERTY CLOUDY    34  29  82 NW12G20   30.09R WCI  25
BRNX BOT. GARD   N/A    N/A N/A N/A W8        30.10R
TETERBORO      CLOUDY    31  26  82 CALM      30.09R
$$

NYZ177-179-078>081-021400-
LONG ISLAND NEW YORK

CITY           SKY/WX    TMP DP  RH WIND       PRES   REMARKS
FARMINGDALE    CLOUDY    30  27  88 NW6       30.07R FOG     WCI  24
ISLIP          CLOUDY    30  27  88 W9        30.04R FOG     WCI  22
SHIRLEY        CLOUDY    30  28  92 W10       30.05R FOG     WCI  21
WESTHAMPTON    CLOUDY    30  27  88 W6        30.04R FOG     WCI  24
MONTAUK POINT    N/A     31  27  85 W8        30.01R WCI  23
$$

NYZ052-065-067-021400-
HUDSON VALLEY

CITY           SKY/WX    TMP DP  RH WIND       PRES   REMARKS
WHITE PLAINS   CLOUDY    31  24  75 NW13      30.04R WCI  21
NEWBURGH       PTSUNNY   27  25  93 W12       30.06R WCI  16
MONTGOMERY     PTSUNNY   30  20  66 W12G21    30.06R WCI  20
POUGHKEEPSIE   PTSUNNY   25  21  85 N3        30.06R
ALBANY         MOSUNNY   26  16  65 W18G26    30.05R WCI  13
$$

NJZ001-105-106-008-010-013-015-019>022-104-021400-
NEW JERSEY

CITY           SKY/WX    TMP DP  RH WIND       PRES   REMARKS
NEWARK/LIBERTY CLOUDY    34  29  82 NW12G20   30.09R WCI  25
TETERBORO      CLOUDY    31  26  82 CALM      30.09R
CALDWELL       CLOUDY    32  25  75 NW9       30.10R WCI  24
MORRISTOWN     PTSUNNY   34  28  80 N10G20    30.09R WCI  26
SOMERVILLE     CLOUDY    32  27  81 VRB5      30.10R HAZE    WCI  27
SUSSEX         LGT SNOW  28  23  81 CALM      30.09R
ANDOVER          N/A     26  24  92 CALM      30.09R
TRENTON        CLOUDY    33  29  85 W5        30.11R FOG     WCI  29
MILLVILLE      CLOUDY    33  31  92 W8G20     30.12R FOG     WCI  26
ATLANTIC CITY  CLOUDY    33  31  92 W7        30.10R FOG     WCI  27
WRIGHTSTOWN    CLOUDY    32  32  99 CALM      30.08R
TOMS RIVER     CLOUDY    34  30  86 CALM      30.08R
BELMAR         PTSUNNY   34  27  75 CALM      30.07R
$$

PAZ047>061-062-071-021400-
EASTERN PENNSYLVANIA

CITY           SKY/WX    TMP DP  RH WIND       PRES   REMARKS
PHILADELPHIA   CLOUDY    33  31  92 W7        30.14R FOG     WCI  27
ALLENTOWN      CLOUDY    31  26  82 N9        30.12R HAZE    WCI  23
SCRANTON       LGT SNOW  27  20  75 N17       30.11R WCI  14
$$

CTZ002-004>006-009-010-012-RIZ004-006-007-MAZ004-011-015-021400-
SOUTHERN NEW ENGLAND
 IN CT

CITY           SKY/WX    TMP DP  RH WIND       PRES   REMARKS
BRADLEY INTL   PTSUNNY   25  21  85 CALM      30.00R
HARTFORD       CLOUDY    30  23  75 W7        30.02R WCI  23
DANBURY        PTSUNNY   29  22  75 W9        30.04R WCI  20
WTRBRY/OXFORD  CLOUDY    27  18  69 NW9       30.01R WCI  17
BRIDGEPORT     CLOUDY    28  26  92 W3        30.04R
MERIDEN        CLOUDY    29  22  75 W6        30.03R WCI  23
NEW HAVEN      CLOUDY    28  25  88 W3        30.03R
CHESTER        FAIR      28  27  93 W3        30.00R
GROTON         CLOUDY    28  24  85 W9        30.01R WCI  19
WILLIMANTIC    PTSUNNY   26  22  84 SW5       29.99R WCI  20

 IN RI

CITY           SKY/WX    TMP DP  RH WIND       PRES   REMARKS
PROVIDENCE     CLOUDY    28  23  81 W6        29.98R WCI  22
BLOCK ISLAND   CLOUDY    30  25  80 W13G18    29.98R WCI  20
WESTERLY       CLOUDY    28  25  88 W5        30.00R WCI  23

 IN MA

CITY           SKY/WX    TMP DP  RH WIND       PRES   REMARKS
BOSTON         CLOUDY    30  23  75 W14       29.93F WCI  19
WORCESTER      MOSUNNY   24  20  84 W18       29.89R WCI  10
WESTFIELD      FLURRIES  23  18  81 VRB5      29.99R WCI  17
PROVINCETOWN   CLOUDY    30  25  80 W10       29.93F WCI  21
NANTUCKET      CLOUDY    31  28  89 W15       29.94F WCI  20
$$

ANZ330-335-338-340-345-350-353-355-021400-
COASTAL MARINE OBSERVATIONS


STATION/POSITION TIME  SKY/WX   TEMP    WIND        PRES    VSBY  WAVE
                                AIR SEA DIR/SP/G                  HT/PER
                 (UTC)          (F)     (DEG/KT/KT) (MB)    (MI)  (FT/S)
NY HARB ENTRANCE 1300            33 36  280/ 14/ 16 1018.0          2/ 8
4S FIRE IS       1300               32                N/A           2/ 3
20S FIRE ISLAND  1200               36              1017.5          2/ 9
23SW MTP         1300                                 N/A           4/ 6
HUDSON CANYON    NOT AVBL
EXECUTION ROCKS  NOT AVBL
WESTERN LI SOUND NOT AVBL
CENTRAL LI SOUND NOT AVBL
EASTERN LI SOUND NOT AVBL
ROBBINS REEF     1300            32     320/ 10/ 12 1017.5
$$


>>>>>>>>>>>>>>>>>>>>>>>>>>>> KEY <<<<<<<<<<<<<<<<<<<<<<<<<<<
>                                                          <
>     SKY/WX - SKY CONDITION/PRESENT WEATHER               <
>     TMP    - TEMPERATURE IN FAHRENHEIT                   <
>     DP     - DEWPOINT IN FAHRENHEIT                      <
>     RH     - RELATIVE HUMIDITY IN PERCENT                <
>     WIND   - DIRECTION AND SPEED IN MPH                  <
>     PRES   - MEAN SEA LEVEL PRESSURE IN INCHES OF HG     <
>     WCI    - WIND CHILL INDEX                            <
>     VSB    - VISIBILITY IN MILES                         <
>     HX     - HEAT INDEX                                  <
>     TC     - TEMPERATURE IN CELSIUS                      <
>     VRB    - VARIABLE WIND DIRECTION                     <
>                                                          <
>>>>>>>>>>>>>>>>>>>>>>>>>>>> KEY <<<<<<<<<<<<<<<<<<<<<<<<<<<




USA.gov is the U.S. government's official web portal to all federal, state and local government web resources and services.